Year,Month,Day,Hour,Minute,Value (Times are PST for temperature in C)
2015,10,15,00,00,8.90
2015,10,15,00,01,8.90
2015,10,15,00,02,8.90
2015,10,15,00,03,9.00
2015,10,15,00,04,9.10
2015,10,15,00,05,9.10
2015,10,15,00,06,9.10
2015,10,15,00,07,9.10
2015,10,15,00,08,9.20
2015,10,15,00,09,9.20
2015,10,15,00,10,9.20
2015,10,15,00,11,9.20
2015,10,15,00,12,9.20
2015,10,15,00,13,9.30
2015,10,15,00,14,9.30
2015,10,15,00,15,9.40
2015,10,15,00,16,9.40
2015,10,15,00,17,9.40
2015,10,15,00,18,9.40
2015,10,15,00,19,9.50
2015,10,15,00,20,9.50
2015,10,15,00,21,9.50
2015,10,15,00,22,9.40
2015,10,15,00,23,9.40
2015,10,15,00,24,9.40
2015,10,15,00,25,9.30
2015,10,15,00,26,9.30
2015,10,15,00,27,9.30
2015,10,15,00,28,9.30
2015,10,15,00,29,9.30
2015,10,15,00,30,9.30
2015,10,15,00,31,9.40
2015,10,15,00,32,9.40
2015,10,15,00,33,9.40
2015,10,15,00,34,9.30
2015,10,15,00,35,9.20
2015,10,15,00,36,9.20
2015,10,15,00,37,9.10
2015,10,15,00,38,9.10
2015,10,15,00,39,9.10
2015,10,15,00,40,9.00
2015,10,15,00,41,9.00
2015,10,15,00,42,8.90
2015,10,15,00,43,9.00
2015,10,15,00,44,9.00
2015,10,15,00,45,9.10
2015,10,15,00,46,9.00
2015,10,15,00,47,9.00
2015,10,15,00,48,9.10
2015,10,15,00,49,9.10
2015,10,15,00,50,9.10
2015,10,15,00,51,9.10
2015,10,15,00,52,9.20
2015,10,15,00,53,9.20
2015,10,15,00,54,9.20
2015,10,15,00,55,9.20
2015,10,15,00,56,9.30
2015,10,15,00,57,9.30
2015,10,15,00,58,9.30
2015,10,15,00,59,9.30
2015,10,15,01,00,9.30
2015,10,15,01,01,9.30
2015,10,15,01,02,9.30
2015,10,15,01,03,9.30
2015,10,15,01,04,9.40
2015,10,15,01,05,9.40
2015,10,15,01,06,9.50
2015,10,15,01,07,9.50
2015,10,15,01,08,9.50
2015,10,15,01,09,9.60
2015,10,15,01,10,9.60
2015,10,15,01,11,9.70
2015,10,15,01,12,9.70
2015,10,15,01,13,9.70
2015,10,15,01,14,9.70
2015,10,15,01,15,9.80
2015,10,15,01,16,9.80
2015,10,15,01,17,9.80
2015,10,15,01,18,9.90
2015,10,15,01,19,9.90
2015,10,15,01,20,9.90
2015,10,15,01,21,9.90
2015,10,15,01,22,9.80
2015,10,15,01,23,9.80
2015,10,15,01,24,9.80
2015,10,15,01,25,9.80
2015,10,15,01,26,9.80
2015,10,15,01,27,9.70
2015,10,15,01,28,9.70
2015,10,15,01,29,9.70
2015,10,15,01,30,9.70
2015,10,15,01,31,9.70
2015,10,15,01,32,9.60
2015,10,15,01,33,9.60
2015,10,15,01,34,9.60
2015,10,15,01,35,9.60
2015,10,15,01,36,9.60
2015,10,15,01,37,9.60
2015,10,15,01,38,9.60
2015,10,15,01,39,9.60
2015,10,15,01,40,9.70
2015,10,15,01,41,9.70
2015,10,15,01,42,9.70
2015,10,15,01,43,9.70
2015,10,15,01,44,9.70
2015,10,15,01,45,9.70
2015,10,15,01,46,9.70
2015,10,15,01,47,9.60
2015,10,15,01,48,9.60
2015,10,15,01,49,9.60
2015,10,15,01,50,9.60
2015,10,15,01,51,9.60
2015,10,15,01,52,9.60
2015,10,15,01,53,9.60
2015,10,15,01,54,9.60
2015,10,15,01,55,9.60
2015,10,15,01,56,9.60
2015,10,15,01,57,9.60
2015,10,15,01,58,9.60
2015,10,15,01,59,9.70
2015,10,15,02,00,9.70
2015,10,15,02,01,9.60
2015,10,15,02,02,9.60
2015,10,15,02,03,9.70
2015,10,15,02,04,9.70
2015,10,15,02,05,9.70
2015,10,15,02,06,9.70
2015,10,15,02,07,9.70
2015,10,15,02,08,9.70
2015,10,15,02,09,9.60
2015,10,15,02,10,9.60
2015,10,15,02,11,9.60
2015,10,15,02,12,9.60
2015,10,15,02,13,9.60
2015,10,15,02,14,9.60
2015,10,15,02,15,9.60
2015,10,15,02,16,9.60
2015,10,15,02,17,9.60
2015,10,15,02,18,9.70
2015,10,15,02,19,9.70
2015,10,15,02,20,9.80
2015,10,15,02,21,9.80
2015,10,15,02,22,9.80
2015,10,15,02,23,9.70
2015,10,15,02,24,9.70
2015,10,15,02,25,9.70
2015,10,15,02,26,9.70
2015,10,15,02,27,9.70
2015,10,15,02,28,9.70
2015,10,15,02,29,9.70
2015,10,15,02,30,9.70
2015,10,15,02,31,9.70
2015,10,15,02,32,9.70
2015,10,15,02,33,9.70
2015,10,15,02,34,9.70
2015,10,15,02,35,9.70
2015,10,15,02,36,9.70
2015,10,15,02,37,9.80
2015,10,15,02,38,9.80
2015,10,15,02,39,9.80
2015,10,15,02,40,9.80
2015,10,15,02,41,9.90
2015,10,15,02,42,10.00
2015,10,15,02,43,10.00
2015,10,15,02,44,10.00
2015,10,15,02,45,10.00
2015,10,15,02,46,10.00
2015,10,15,02,47,10.00
2015,10,15,02,48,10.00
2015,10,15,02,49,10.10
2015,10,15,02,50,10.20
2015,10,15,02,51,10.20
2015,10,15,02,52,10.30
2015,10,15,02,53,10.40
2015,10,15,02,54,10.40
2015,10,15,02,55,10.40
2015,10,15,02,56,10.40
2015,10,15,02,57,10.40
2015,10,15,02,58,10.50
2015,10,15,02,59,10.50
2015,10,15,03,00,10.60
2015,10,15,03,01,10.60
2015,10,15,03,02,10.60
2015,10,15,03,03,10.50
2015,10,15,03,04,10.50
2015,10,15,03,05,10.40
2015,10,15,03,06,10.40
2015,10,15,03,07,10.40
2015,10,15,03,08,10.40
2015,10,15,03,09,10.40
2015,10,15,03,10,10.40
2015,10,15,03,11,10.50
2015,10,15,03,12,10.50
2015,10,15,03,13,10.50
2015,10,15,03,14,10.40
2015,10,15,03,15,10.40
2015,10,15,03,16,10.30
2015,10,15,03,17,10.30
2015,10,15,03,18,10.30
2015,10,15,03,19,10.30
2015,10,15,03,20,10.30
2015,10,15,03,21,10.30
2015,10,15,03,22,10.30
2015,10,15,03,23,10.40
2015,10,15,03,24,10.40
2015,10,15,03,25,10.50
2015,10,15,03,26,10.50
2015,10,15,03,27,10.60
2015,10,15,03,28,10.60
2015,10,15,03,29,10.70
2015,10,15,03,30,10.70
2015,10,15,03,31,10.70
2015,10,15,03,32,10.70
2015,10,15,03,33,10.70
2015,10,15,03,34,10.60
2015,10,15,03,35,10.60
2015,10,15,03,36,10.60
2015,10,15,03,37,10.50
2015,10,15,03,38,10.50
2015,10,15,03,39,10.60
2015,10,15,03,40,10.60
2015,10,15,03,41,10.60
2015,10,15,03,42,10.60
2015,10,15,03,43,10.60
2015,10,15,03,44,10.60
2015,10,15,03,45,10.50
2015,10,15,03,46,10.50
2015,10,15,03,47,10.60
2015,10,15,03,48,10.60
2015,10,15,03,49,10.60
2015,10,15,03,50,10.60
2015,10,15,03,51,10.60
2015,10,15,03,52,10.60
2015,10,15,03,53,10.70
2015,10,15,03,54,10.70
2015,10,15,03,55,10.60
2015,10,15,03,56,10.60
2015,10,15,03,57,10.60
2015,10,15,03,58,10.60
2015,10,15,03,59,10.60
2015,10,15,04,00,10.60
2015,10,15,04,01,10.70
2015,10,15,04,02,10.70
2015,10,15,04,03,10.70
2015,10,15,04,04,10.70
2015,10,15,04,05,10.70
2015,10,15,04,06,10.70
2015,10,15,04,07,10.70
2015,10,15,04,08,10.70
2015,10,15,04,09,10.60
2015,10,15,04,10,10.60
2015,10,15,04,11,10.50
2015,10,15,04,12,10.50
2015,10,15,04,13,10.40
2015,10,15,04,14,10.30
2015,10,15,04,15,10.30
2015,10,15,04,16,10.30
2015,10,15,04,17,10.30
2015,10,15,04,18,10.30
2015,10,15,04,19,10.30
2015,10,15,04,20,10.30
2015,10,15,04,21,10.20
2015,10,15,04,22,10.20
2015,10,15,04,23,10.20
2015,10,15,04,24,10.30
2015,10,15,04,25,10.20
2015,10,15,04,26,10.20
2015,10,15,04,27,10.20
2015,10,15,04,28,10.20
2015,10,15,04,29,10.20
2015,10,15,04,30,10.20
2015,10,15,04,31,10.30
2015,10,15,04,32,10.30
2015,10,15,04,33,10.30
2015,10,15,04,34,10.30
2015,10,15,04,35,10.30
2015,10,15,04,36,10.30
2015,10,15,04,37,10.30
2015,10,15,04,38,10.30
2015,10,15,04,39,10.30
2015,10,15,04,40,10.30
2015,10,15,04,41,10.30
2015,10,15,04,42,10.40
2015,10,15,04,43,10.40
2015,10,15,04,44,10.40
2015,10,15,04,45,10.40
2015,10,15,04,46,10.30
2015,10,15,04,47,10.30
2015,10,15,04,48,10.30
2015,10,15,04,49,10.30
2015,10,15,04,50,10.40
2015,10,15,04,51,10.40
2015,10,15,04,52,10.40
2015,10,15,04,53,10.40
2015,10,15,04,54,10.40
2015,10,15,04,55,10.40
2015,10,15,04,56,10.30
2015,10,15,04,57,10.30
2015,10,15,04,58,10.30
2015,10,15,04,59,10.40
2015,10,15,05,00,10.40
2015,10,15,05,01,10.40
2015,10,15,05,02,10.40
2015,10,15,05,03,10.40
2015,10,15,05,04,10.50
2015,10,15,05,05,10.50
2015,10,15,05,06,10.50
2015,10,15,05,07,10.60
2015,10,15,05,08,10.60
2015,10,15,05,09,10.60
2015,10,15,05,10,10.70
2015,10,15,05,11,10.70
2015,10,15,05,12,10.70
2015,10,15,05,13,10.80
2015,10,15,05,14,10.90
2015,10,15,05,15,11.00
2015,10,15,05,16,11.10
2015,10,15,05,17,11.20
2015,10,15,05,18,11.30
2015,10,15,05,19,11.30
2015,10,15,05,20,11.30
2015,10,15,05,21,11.30
2015,10,15,05,22,11.30
2015,10,15,05,23,11.30
2015,10,15,05,24,11.40
2015,10,15,05,25,11.40
2015,10,15,05,26,11.40
2015,10,15,05,27,11.40
2015,10,15,05,28,11.40
2015,10,15,05,29,11.50
2015,10,15,05,30,11.50
2015,10,15,05,31,11.50
2015,10,15,05,32,11.50
2015,10,15,05,33,11.50
2015,10,15,05,34,11.40
2015,10,15,05,35,11.40
2015,10,15,05,36,11.40
2015,10,15,05,37,11.30
2015,10,15,05,38,11.30
2015,10,15,05,39,11.20
2015,10,15,05,40,11.10
2015,10,15,05,41,11.10
2015,10,15,05,42,11.10
2015,10,15,05,43,11.00
2015,10,15,05,44,11.00
2015,10,15,05,45,11.10
2015,10,15,05,46,11.10
2015,10,15,05,47,11.10
2015,10,15,05,48,11.10
2015,10,15,05,49,11.00
2015,10,15,05,50,11.00
2015,10,15,05,51,10.90
2015,10,15,05,52,10.90
2015,10,15,05,53,10.90
2015,10,15,05,54,10.90
2015,10,15,05,55,11.00
2015,10,15,05,56,11.00
2015,10,15,05,57,11.00
2015,10,15,05,58,11.10
2015,10,15,05,59,11.10
2015,10,15,06,00,11.10
2015,10,15,06,01,11.00
2015,10,15,06,02,11.00
2015,10,15,06,03,10.90
2015,10,15,06,04,10.90
2015,10,15,06,05,10.90
2015,10,15,06,06,10.90
2015,10,15,06,07,10.90
2015,10,15,06,08,10.90
2015,10,15,06,09,10.90
2015,10,15,06,10,10.90
2015,10,15,06,11,10.90
2015,10,15,06,12,10.90
2015,10,15,06,13,10.90
2015,10,15,06,14,10.90
2015,10,15,06,15,10.90
2015,10,15,06,16,11.00
2015,10,15,06,17,11.00
2015,10,15,06,18,11.10
2015,10,15,06,19,11.00
2015,10,15,06,20,11.00
2015,10,15,06,21,11.00
2015,10,15,06,22,11.00
2015,10,15,06,23,10.90
2015,10,15,06,24,10.90
2015,10,15,06,25,10.90
2015,10,15,06,26,10.90
2015,10,15,06,27,10.80
2015,10,15,06,28,10.80
2015,10,15,06,29,10.70
2015,10,15,06,30,10.70
2015,10,15,06,31,10.70
2015,10,15,06,32,10.70
2015,10,15,06,33,10.60
2015,10,15,06,34,10.50
2015,10,15,06,35,10.40
2015,10,15,06,36,10.40
2015,10,15,06,37,10.40
2015,10,15,06,38,10.40
2015,10,15,06,39,10.50
2015,10,15,06,40,10.50
2015,10,15,06,41,10.50
2015,10,15,06,42,10.50
2015,10,15,06,43,10.50
2015,10,15,06,44,10.40
2015,10,15,06,45,10.40
2015,10,15,06,46,10.40
2015,10,15,06,47,10.40
2015,10,15,06,48,10.40
2015,10,15,06,49,10.40
2015,10,15,06,50,10.40
2015,10,15,06,51,10.40
2015,10,15,06,52,10.40
2015,10,15,06,53,10.40
2015,10,15,06,54,10.40
2015,10,15,06,55,10.40
2015,10,15,06,56,10.40
2015,10,15,06,57,10.40
2015,10,15,06,58,10.40
2015,10,15,06,59,10.30
2015,10,15,07,00,10.30
2015,10,15,07,01,10.20
2015,10,15,07,02,10.20
2015,10,15,07,03,10.20
2015,10,15,07,04,10.10
2015,10,15,07,05,10.20
2015,10,15,07,06,10.20
2015,10,15,07,07,10.20
2015,10,15,07,08,10.20
2015,10,15,07,09,10.20
2015,10,15,07,10,10.20
2015,10,15,07,11,10.20
2015,10,15,07,12,10.20
2015,10,15,07,13,10.20
2015,10,15,07,14,10.20
2015,10,15,07,15,10.20
2015,10,15,07,16,10.20
2015,10,15,07,17,10.30
2015,10,15,07,18,10.30
2015,10,15,07,19,10.30
2015,10,15,07,20,10.40
2015,10,15,07,21,10.40
2015,10,15,07,22,10.40
2015,10,15,07,23,10.40
2015,10,15,07,24,10.40
2015,10,15,07,25,10.40
2015,10,15,07,26,10.40
2015,10,15,07,27,10.50
2015,10,15,07,28,10.50
2015,10,15,07,29,10.50
2015,10,15,07,30,10.40
2015,10,15,07,31,10.40
2015,10,15,07,32,10.50
2015,10,15,07,33,10.50
2015,10,15,07,34,10.50
2015,10,15,07,35,10.50
2015,10,15,07,36,10.50
2015,10,15,07,37,10.50
2015,10,15,07,38,10.50
2015,10,15,07,39,10.60
2015,10,15,07,40,10.70
2015,10,15,07,41,10.70
2015,10,15,07,42,10.80
2015,10,15,07,43,10.80
2015,10,15,07,44,10.80
2015,10,15,07,45,10.90
2015,10,15,07,46,10.90
2015,10,15,07,47,10.90
2015,10,15,07,48,10.90
2015,10,15,07,49,11.00
2015,10,15,07,50,11.10
2015,10,15,07,51,11.20
2015,10,15,07,52,11.10
2015,10,15,07,53,11.10
2015,10,15,07,54,11.10
2015,10,15,07,55,11.10
2015,10,15,07,56,11.10
2015,10,15,07,57,11.10
2015,10,15,07,58,11.10
2015,10,15,07,59,11.10
2015,10,15,08,00,11.10
2015,10,15,08,01,11.10
2015,10,15,08,02,11.20
2015,10,15,08,03,11.30
2015,10,15,08,04,11.30
2015,10,15,08,05,11.40
2015,10,15,08,06,11.50
2015,10,15,08,07,11.50
2015,10,15,08,08,11.50
2015,10,15,08,09,11.60
2015,10,15,08,10,11.60
2015,10,15,08,11,11.70
2015,10,15,08,12,11.70
2015,10,15,08,13,11.70
2015,10,15,08,14,11.80
2015,10,15,08,15,11.80
2015,10,15,08,16,11.90
2015,10,15,08,17,11.90
2015,10,15,08,18,11.90
2015,10,15,08,19,11.90
2015,10,15,08,20,11.90
2015,10,15,08,21,12.00
2015,10,15,08,22,12.00
2015,10,15,08,23,12.00
2015,10,15,08,24,12.00
2015,10,15,08,25,12.00
2015,10,15,08,26,12.00
2015,10,15,08,27,12.10
2015,10,15,08,28,12.20
2015,10,15,08,29,12.20
2015,10,15,08,30,12.40
2015,10,15,08,31,12.50
2015,10,15,08,32,12.60
2015,10,15,08,33,12.70
2015,10,15,08,34,12.80
2015,10,15,08,35,12.90
2015,10,15,08,36,13.00
2015,10,15,08,37,13.20
2015,10,15,08,38,13.20
2015,10,15,08,39,13.30
2015,10,15,08,40,13.40
2015,10,15,08,41,13.50
2015,10,15,08,42,13.60
2015,10,15,08,43,13.70
2015,10,15,08,44,13.80
2015,10,15,08,45,13.80
2015,10,15,08,46,13.90
2015,10,15,08,47,13.90
2015,10,15,08,48,14.00
2015,10,15,08,49,14.00
2015,10,15,08,50,14.10
2015,10,15,08,51,14.10
2015,10,15,08,52,14.20
2015,10,15,08,53,14.20
2015,10,15,08,54,14.20
2015,10,15,08,55,14.20
2015,10,15,08,56,14.20
2015,10,15,08,57,14.20
2015,10,15,08,58,14.30
2015,10,15,08,59,14.30
2015,10,15,09,00,14.40
2015,10,15,09,01,14.40
2015,10,15,09,02,14.40
2015,10,15,09,03,14.50
2015,10,15,09,04,14.50
2015,10,15,09,05,14.60
2015,10,15,09,06,14.60
2015,10,15,09,07,14.70
2015,10,15,09,08,14.70
2015,10,15,09,09,14.80
2015,10,15,09,10,14.80
2015,10,15,09,11,14.80
2015,10,15,09,12,14.90
2015,10,15,09,13,14.90
2015,10,15,09,14,15.00
2015,10,15,09,15,15.00
2015,10,15,09,16,15.10
2015,10,15,09,17,15.10
2015,10,15,09,18,15.10
2015,10,15,09,19,15.10
2015,10,15,09,20,15.20
2015,10,15,09,21,15.20
2015,10,15,09,22,15.30
2015,10,15,09,23,15.30
2015,10,15,09,24,15.30
2015,10,15,09,25,15.40
2015,10,15,09,26,15.50
2015,10,15,09,27,15.50
2015,10,15,09,28,15.60
2015,10,15,09,29,15.70
2015,10,15,09,30,15.70
2015,10,15,09,31,15.70
2015,10,15,09,32,15.70
2015,10,15,09,33,15.70
2015,10,15,09,34,15.80
2015,10,15,09,35,15.80
2015,10,15,09,36,15.80
2015,10,15,09,37,15.90
2015,10,15,09,38,16.00
2015,10,15,09,39,16.00
2015,10,15,09,40,16.10
2015,10,15,09,41,16.20
2015,10,15,09,42,16.20
2015,10,15,09,43,16.30
2015,10,15,09,44,16.30
2015,10,15,09,45,16.30
2015,10,15,09,46,16.40
2015,10,15,09,47,16.40
2015,10,15,09,48,16.40
2015,10,15,09,49,16.40
2015,10,15,09,50,16.50
2015,10,15,09,51,16.50
2015,10,15,09,52,16.60
2015,10,15,09,53,16.70
2015,10,15,09,54,16.70
2015,10,15,09,55,16.80
2015,10,15,09,56,16.80
2015,10,15,09,57,16.80
2015,10,15,09,58,16.90
2015,10,15,09,59,16.90
2015,10,15,10,00,16.90
2015,10,15,10,01,17.00
2015,10,15,10,02,17.00
2015,10,15,10,03,17.10
2015,10,15,10,04,17.10
2015,10,15,10,05,17.10
2015,10,15,10,06,17.20
2015,10,15,10,07,17.20
2015,10,15,10,08,17.20
2015,10,15,10,09,17.20
2015,10,15,10,10,17.20
2015,10,15,10,11,17.30
2015,10,15,10,12,17.30
2015,10,15,10,13,17.30
2015,10,15,10,14,17.30
2015,10,15,10,15,17.30
2015,10,15,10,16,17.40
2015,10,15,10,17,17.40
2015,10,15,10,18,17.40
2015,10,15,10,19,17.50
2015,10,15,10,20,17.50
2015,10,15,10,21,17.60
2015,10,15,10,22,17.60
2015,10,15,10,23,17.70
2015,10,15,10,24,17.70
2015,10,15,10,25,17.70
2015,10,15,10,26,17.70
2015,10,15,10,27,17.80
2015,10,15,10,28,17.80
2015,10,15,10,29,17.90
2015,10,15,10,30,17.90
2015,10,15,10,31,18.00
2015,10,15,10,32,18.00
2015,10,15,10,33,18.10
2015,10,15,10,34,18.20
2015,10,15,10,35,18.20
2015,10,15,10,36,18.20
2015,10,15,10,37,18.30
2015,10,15,10,38,18.20
2015,10,15,10,39,18.20
2015,10,15,10,40,18.20
2015,10,15,10,41,18.20
2015,10,15,10,42,18.20
2015,10,15,10,43,18.20
2015,10,15,10,44,18.10
2015,10,15,10,45,18.10
2015,10,15,10,46,18.10
2015,10,15,10,47,18.10
2015,10,15,10,48,18.10
2015,10,15,10,49,18.10
2015,10,15,10,50,18.10
2015,10,15,10,51,18.10
2015,10,15,10,52,18.10
2015,10,15,10,53,18.10
2015,10,15,10,54,18.10
2015,10,15,10,55,18.20
2015,10,15,10,56,18.20
2015,10,15,10,57,18.20
2015,10,15,10,58,18.20
2015,10,15,10,59,18.20
2015,10,15,11,00,18.20
2015,10,15,11,01,18.20
2015,10,15,11,02,18.20
2015,10,15,11,03,18.20
2015,10,15,11,04,18.10
2015,10,15,11,05,18.20
2015,10,15,11,06,18.20
2015,10,15,11,07,18.20
2015,10,15,11,08,18.20
2015,10,15,11,09,18.20
2015,10,15,11,10,18.20
2015,10,15,11,11,18.30
2015,10,15,11,12,18.30
2015,10,15,11,13,18.30
2015,10,15,11,14,18.40
2015,10,15,11,15,18.40
2015,10,15,11,16,18.40
2015,10,15,11,17,18.40
2015,10,15,11,18,18.40
2015,10,15,11,19,18.40
2015,10,15,11,20,18.40
2015,10,15,11,21,18.40
2015,10,15,11,22,18.40
2015,10,15,11,23,18.40
2015,10,15,11,24,18.40
2015,10,15,11,25,18.40
2015,10,15,11,26,18.50
2015,10,15,11,27,18.60
2015,10,15,11,28,18.60
2015,10,15,11,29,18.60
2015,10,15,11,30,18.70
2015,10,15,11,31,18.70
2015,10,15,11,32,18.70
2015,10,15,11,33,18.70
2015,10,15,11,34,18.80
2015,10,15,11,35,18.80
2015,10,15,11,36,18.80
2015,10,15,11,37,18.90
2015,10,15,11,38,18.90
2015,10,15,11,39,19.00
2015,10,15,11,40,19.10
2015,10,15,11,41,19.10
2015,10,15,11,42,19.10
2015,10,15,11,43,19.20
2015,10,15,11,44,19.20
2015,10,15,11,45,19.30
2015,10,15,11,46,19.30
2015,10,15,11,47,19.30
2015,10,15,11,48,19.30
2015,10,15,11,49,19.30
2015,10,15,11,50,19.40
2015,10,15,11,51,19.40
2015,10,15,11,52,19.40
2015,10,15,11,53,19.50
2015,10,15,11,54,19.60
2015,10,15,11,55,19.60
2015,10,15,11,56,19.70
2015,10,15,11,57,19.80
2015,10,15,11,58,19.80
2015,10,15,11,59,20.00
2015,10,15,12,00,20.10
2015,10,15,12,01,20.20
2015,10,15,12,02,20.20
2015,10,15,12,03,20.30
2015,10,15,12,04,20.40
2015,10,15,12,05,20.40
2015,10,15,12,06,20.40
2015,10,15,12,07,20.50
2015,10,15,12,08,20.40
2015,10,15,12,09,20.40
2015,10,15,12,10,20.30
2015,10,15,12,11,20.30
2015,10,15,12,12,20.30
2015,10,15,12,13,20.30
2015,10,15,12,14,20.30
2015,10,15,12,15,20.30
2015,10,15,12,16,20.30
2015,10,15,12,17,20.40
2015,10,15,12,18,20.50
2015,10,15,12,19,20.50
2015,10,15,12,20,20.60
2015,10,15,12,21,20.60
2015,10,15,12,22,20.60
2015,10,15,12,23,20.70
2015,10,15,12,24,20.70
2015,10,15,12,25,20.80
2015,10,15,12,26,20.80
2015,10,15,12,27,20.80
2015,10,15,12,28,20.80
2015,10,15,12,29,20.90
2015,10,15,12,30,20.90
2015,10,15,12,31,20.90
2015,10,15,12,32,20.90
2015,10,15,12,33,20.80
2015,10,15,12,34,20.80
2015,10,15,12,35,20.80
2015,10,15,12,36,20.80
2015,10,15,12,37,20.80
2015,10,15,12,38,20.80
2015,10,15,12,39,20.90
2015,10,15,12,40,20.90
2015,10,15,12,41,21.00
2015,10,15,12,42,21.10
2015,10,15,12,43,21.20
2015,10,15,12,44,21.20
2015,10,15,12,45,21.30
2015,10,15,12,46,21.30
2015,10,15,12,47,21.30
2015,10,15,12,48,21.30
2015,10,15,12,49,21.20
2015,10,15,12,50,21.10
2015,10,15,12,51,21.00
2015,10,15,12,52,20.90
2015,10,15,12,53,20.80
2015,10,15,12,54,20.60
2015,10,15,12,55,20.50
2015,10,15,12,56,20.50
2015,10,15,12,57,20.50
2015,10,15,12,58,20.50
2015,10,15,12,59,20.60
2015,10,15,13,00,20.50
2015,10,15,13,01,20.50
2015,10,15,13,02,20.50
2015,10,15,13,03,20.50
2015,10,15,13,04,20.60
2015,10,15,13,05,20.70
2015,10,15,13,06,20.70
2015,10,15,13,07,20.80
2015,10,15,13,08,20.80
2015,10,15,13,09,20.90
2015,10,15,13,10,21.00
2015,10,15,13,11,21.10
2015,10,15,13,12,21.20
2015,10,15,13,13,21.30
2015,10,15,13,14,21.40
2015,10,15,13,15,21.40
2015,10,15,13,16,21.40
2015,10,15,13,17,21.40
2015,10,15,13,18,21.40
2015,10,15,13,19,21.40
2015,10,15,13,20,21.40
2015,10,15,13,21,21.40
2015,10,15,13,22,21.30
2015,10,15,13,23,21.10
2015,10,15,13,24,21.00
2015,10,15,13,25,20.90
2015,10,15,13,26,20.80
2015,10,15,13,27,20.90
2015,10,15,13,28,20.90
2015,10,15,13,29,21.00
2015,10,15,13,30,21.10
2015,10,15,13,31,21.10
2015,10,15,13,32,21.00
2015,10,15,13,33,21.00
2015,10,15,13,34,20.90
2015,10,15,13,35,20.90
2015,10,15,13,36,20.90
2015,10,15,13,37,20.90
2015,10,15,13,38,21.00
2015,10,15,13,39,21.10
2015,10,15,13,40,21.20
2015,10,15,13,41,21.20
2015,10,15,13,42,21.20
2015,10,15,13,43,21.20
2015,10,15,13,44,21.30
2015,10,15,13,45,21.30
2015,10,15,13,46,21.30
2015,10,15,13,47,21.20
2015,10,15,13,48,21.20
2015,10,15,13,49,21.20
2015,10,15,13,50,21.20
2015,10,15,13,51,21.20
2015,10,15,13,52,21.30
2015,10,15,13,53,21.30
2015,10,15,13,54,21.30
2015,10,15,13,55,21.30
2015,10,15,13,56,21.30
2015,10,15,13,57,21.30
2015,10,15,13,58,21.20
2015,10,15,13,59,21.20
2015,10,15,14,00,21.10
2015,10,15,14,01,21.00
2015,10,15,14,02,20.90
2015,10,15,14,03,20.90
2015,10,15,14,04,20.80
2015,10,15,14,05,20.70
2015,10,15,14,06,20.60
2015,10,15,14,07,20.50
2015,10,15,14,08,20.50
2015,10,15,14,09,20.50
2015,10,15,14,10,20.50
2015,10,15,14,11,20.60
2015,10,15,14,12,20.60
2015,10,15,14,13,20.70
2015,10,15,14,14,20.70
2015,10,15,14,15,20.80
2015,10,15,14,16,20.80
2015,10,15,14,17,20.80
2015,10,15,14,18,20.70
2015,10,15,14,19,20.60
2015,10,15,14,20,20.60
2015,10,15,14,21,20.60
2015,10,15,14,22,20.70
2015,10,15,14,23,20.60
2015,10,15,14,24,20.60
2015,10,15,14,25,20.50
2015,10,15,14,26,20.40
2015,10,15,14,27,20.30
2015,10,15,14,28,20.30
2015,10,15,14,29,20.20
2015,10,15,14,30,20.20
2015,10,15,14,31,20.20
2015,10,15,14,32,20.30
2015,10,15,14,33,20.30
2015,10,15,14,34,20.30
2015,10,15,14,35,20.40
2015,10,15,14,36,20.40
2015,10,15,14,37,20.40
2015,10,15,14,38,20.50
2015,10,15,14,39,20.60
2015,10,15,14,40,20.70
2015,10,15,14,41,20.80
2015,10,15,14,42,20.80
2015,10,15,14,43,20.90
2015,10,15,14,44,20.90
2015,10,15,14,45,20.90
2015,10,15,14,46,20.90
2015,10,15,14,47,20.90
2015,10,15,14,48,20.90
2015,10,15,14,49,21.00
2015,10,15,14,50,21.10
2015,10,15,14,51,21.10
2015,10,15,14,52,21.00
2015,10,15,14,53,21.00
2015,10,15,14,54,21.10
2015,10,15,14,55,21.10
2015,10,15,14,56,21.10
2015,10,15,14,57,21.10
2015,10,15,14,58,21.20
2015,10,15,14,59,21.20
2015,10,15,15,00,21.30
2015,10,15,15,01,21.30
2015,10,15,15,02,21.20
2015,10,15,15,03,21.20
2015,10,15,15,04,21.20
2015,10,15,15,05,21.20
2015,10,15,15,06,21.30
2015,10,15,15,07,21.30
2015,10,15,15,08,21.30
2015,10,15,15,09,21.40
2015,10,15,15,10,21.50
2015,10,15,15,11,21.60
2015,10,15,15,12,21.60
2015,10,15,15,13,21.70
2015,10,15,15,14,21.60
2015,10,15,15,15,21.70
2015,10,15,15,16,21.70
2015,10,15,15,17,21.70
2015,10,15,15,18,21.70
2015,10,15,15,19,21.60
2015,10,15,15,20,21.60
2015,10,15,15,21,21.60
2015,10,15,15,22,21.60
2015,10,15,15,23,21.60
2015,10,15,15,24,21.60
2015,10,15,15,25,21.60
2015,10,15,15,26,21.60
2015,10,15,15,27,21.60
2015,10,15,15,28,21.60
2015,10,15,15,29,21.60
2015,10,15,15,30,21.60
2015,10,15,15,31,21.50
2015,10,15,15,32,21.40
2015,10,15,15,33,21.10
2015,10,15,15,34,20.90
2015,10,15,15,35,20.70
2015,10,15,15,36,20.60
2015,10,15,15,37,20.50
2015,10,15,15,38,20.30
2015,10,15,15,39,20.20
2015,10,15,15,40,20.20
2015,10,15,15,41,20.10
2015,10,15,15,42,20.10
2015,10,15,15,43,20.00
2015,10,15,15,44,19.90
2015,10,15,15,45,19.90
2015,10,15,15,46,19.90
2015,10,15,15,47,19.90
2015,10,15,15,48,19.80
2015,10,15,15,49,19.80
2015,10,15,15,50,19.80
2015,10,15,15,51,19.80
2015,10,15,15,52,19.80
2015,10,15,15,53,19.80
2015,10,15,15,54,19.80
2015,10,15,15,55,19.80
2015,10,15,15,56,19.80
2015,10,15,15,57,19.80
2015,10,15,15,58,19.80
2015,10,15,15,59,19.80
2015,10,15,16,00,19.80
2015,10,15,16,01,19.80
2015,10,15,16,02,19.80
2015,10,15,16,03,19.90
2015,10,15,16,04,19.90
2015,10,15,16,05,19.90
2015,10,15,16,06,20.00
2015,10,15,16,07,20.00
2015,10,15,16,08,20.10
2015,10,15,16,09,20.10
2015,10,15,16,10,20.10
2015,10,15,16,11,20.10
2015,10,15,16,12,20.10
2015,10,15,16,13,20.00
2015,10,15,16,14,19.90
2015,10,15,16,15,19.90
2015,10,15,16,16,19.80
2015,10,15,16,17,19.70
2015,10,15,16,18,19.50
2015,10,15,16,19,19.40
2015,10,15,16,20,19.30
2015,10,15,16,21,19.30
2015,10,15,16,22,19.20
2015,10,15,16,23,19.20
2015,10,15,16,24,19.10
2015,10,15,16,25,19.10
2015,10,15,16,26,19.00
2015,10,15,16,27,19.00
2015,10,15,16,28,18.90
2015,10,15,16,29,18.90
2015,10,15,16,30,18.80
2015,10,15,16,31,18.80
2015,10,15,16,32,18.80
2015,10,15,16,33,18.70
2015,10,15,16,34,18.70
2015,10,15,16,35,18.70
2015,10,15,16,36,18.70
2015,10,15,16,37,18.70
2015,10,15,16,38,18.70
2015,10,15,16,39,18.70
2015,10,15,16,40,18.70
2015,10,15,16,41,18.60
2015,10,15,16,42,18.50
2015,10,15,16,43,18.50
2015,10,15,16,44,18.40
2015,10,15,16,45,18.30
2015,10,15,16,46,18.30
2015,10,15,16,47,18.20
2015,10,15,16,48,18.20
2015,10,15,16,49,18.10
2015,10,15,16,50,18.10
2015,10,15,16,51,18.10
2015,10,15,16,52,18.10
2015,10,15,16,53,18.10
2015,10,15,16,54,18.10
2015,10,15,16,55,18.10
2015,10,15,16,56,18.10
2015,10,15,16,57,18.10
2015,10,15,16,58,18.10
2015,10,15,16,59,18.00
2015,10,15,17,00,18.10
2015,10,15,17,01,18.10
2015,10,15,17,02,18.10
2015,10,15,17,03,18.10
2015,10,15,17,04,18.00
2015,10,15,17,05,18.00
2015,10,15,17,06,18.00
2015,10,15,17,07,18.00
2015,10,15,17,08,17.90
2015,10,15,17,09,17.90
2015,10,15,17,10,17.90
2015,10,15,17,11,17.80
2015,10,15,17,12,17.80
2015,10,15,17,13,17.80
2015,10,15,17,14,17.70
2015,10,15,17,15,17.70
2015,10,15,17,16,17.70
2015,10,15,17,17,17.70
2015,10,15,17,18,17.70
2015,10,15,17,19,17.70
2015,10,15,17,20,17.60
2015,10,15,17,21,17.60
2015,10,15,17,22,17.60
2015,10,15,17,23,17.50
2015,10,15,17,24,17.50
2015,10,15,17,25,17.50
2015,10,15,17,26,17.40